Change the Weather History Date:

Saturday, February 8, 2014

  Actual Average Record
Temperature  
Mean Temperature 10 °F -  
Max Temperature 15 °F 30 °F 62 °F (1990)
Min Temperature 6 °F 12 °F -17 °F (1985)
Degree Days  
Heating Degree Days 54    
Moisture  
Dew Point 2 °F    
Average Humidity 69    
Maximum Humidity 93    
Minimum Humidity 18    
Precipitation  
Precipitation 0.00 in - - ()
Sea Level Pressure  
Sea Level Pressure 30.20 in    
Wind  
Wind Speed 5 mph (SE)    
Max Wind Speed 12 mph    
Max Gust Speed -    
Visibility 8 miles    
Events      
Averages and records for this station are not official NWS values.
T = Trace of Precipitation, MM = Missing Value Source: NWS Daily Summary

Daily Weather History Graph

Daily Weather History Graph

Search for Another Location

Airport or City:

Trip Planner

Search our weather history database for the weather conditions in past years. The results will help you decide how hot, cold, wet, or windy it might be!

Date:

Astronomy

Feb. 08, 2014 Rise Set
Actual Time 7:05 AM CST 5:25 PM CST
Civil Twilight 6:36 AM CST 5:54 PM CST
Nautical Twilight 6:03 AM CST 6:27 PM CST
Astronomical Twilight 5:31 AM CST 7:00 PM CST
Moon 12:18 PM CST (2/8) 2:19 AM CST (2/8)
Length of Visible Light 11h 17m
Length of Day
10h 19m
Waxing Gibbous, 69% of the Moon is Illuminated
Feb 8
Waxing Gibbous
Feb 14
Full
Feb 22
Last Quarter
Mar 1
New
Mar 8
First Quarter

Hourly Weather History & Observations

Time (CST) Temp. Windchill Dew Point Humidity Pressure Visibility Wind Dir Wind Speed Gust Speed Precip Events Conditions
12:15 AM 6.8 °F -4.8 °F -2.2 °F 67% 30.31 in 10.0 mi SSW 6.9 mph - N/A   Mostly Cloudy
12:35 AM 6.8 °F -4.8 °F -2.2 °F 67% 30.30 in 10.0 mi SSW 6.9 mph - N/A   Mostly Cloudy
12:55 AM 6.8 °F -0.1 °F 1.4 °F 79% 30.30 in 10.0 mi South 3.5 mph - N/A   Mostly Cloudy
1:15 AM 6.8 °F - 1.4 °F 79% 30.29 in 10.0 mi Calm Calm - N/A   Overcast
1:35 AM 6.8 °F -0.1 °F -27.4 °F 20% 30.29 in 10.0 mi SE 3.5 mph - N/A   Overcast
1:55 AM 8.6 °F 2.0 °F -23.8 °F 22% 30.29 in 10.0 mi ESE 3.5 mph - N/A   Overcast
2:15 AM 8.6 °F 2.0 °F -18.4 °F 28% 30.29 in 10.0 mi SE 3.5 mph - N/A   Overcast
2:35 AM 8.6 °F 0.1 °F -14.8 °F 34% 30.28 in 10.0 mi SE 4.6 mph - N/A   Overcast
2:55 AM 8.6 °F -1.3 °F -9.4 °F 44% 30.28 in 10.0 mi SSE 5.8 mph - N/A   Overcast
3:15 AM 8.6 °F 0.1 °F -5.8 °F 52% 30.28 in 10.0 mi SE 4.6 mph - N/A   Overcast
3:35 AM 8.6 °F 2.0 °F -2.2 °F 62% 30.27 in 10.0 mi ESE 3.5 mph - N/A   Overcast
3:55 AM 8.6 °F -1.3 °F -0.4 °F 67% 30.26 in 10.0 mi SE 5.8 mph - N/A   Overcast
4:15 AM 10.4 °F -0.4 °F 3.2 °F 73% 30.25 in 10.0 mi SE 6.9 mph - N/A   Overcast
4:35 AM 10.4 °F 0.8 °F -25.6 °F 18% 30.25 in 10.0 mi SSE 5.8 mph - N/A   Overcast
4:55 AM 10.4 °F 2.2 °F -20.2 °F 24% 30.26 in 10.0 mi SSE 4.6 mph - N/A   Overcast
5:15 AM 10.4 °F 2.2 °F -14.8 °F 31% 30.25 in 10.0 mi SE 4.6 mph - N/A   Overcast
5:35 AM 10.4 °F 0.8 °F -7.6 °F 44% 30.24 in 10.0 mi SE 5.8 mph - N/A   Overcast
5:55 AM 10.4 °F 0.8 °F -2.2 °F 57% 30.24 in 10.0 mi SE 5.8 mph - N/A   Overcast
6:15 AM 10.4 °F 2.2 °F -0.4 °F 62% 30.24 in 10.0 mi SSE 4.6 mph - N/A   Overcast
6:35 AM 10.4 °F -0.4 °F -18.4 °F 26% 30.24 in 10.0 mi SSE 6.9 mph - N/A   Overcast
6:55 AM 10.4 °F -0.4 °F -20.2 °F 24% 30.23 in 10.0 mi SSE 6.9 mph - N/A   Overcast
7:15 AM 10.4 °F 2.2 °F -11.2 °F 37% 30.23 in 10.0 mi SSE 4.6 mph - N/A   Overcast
7:35 AM 10.4 °F 0.8 °F -5.8 °F 48% 30.23 in 10.0 mi SSE 5.8 mph - N/A   Overcast
7:55 AM 10.4 °F -0.4 °F - N/A% 30.23 in 10.0 mi SE 6.9 mph - N/A   Overcast
8:15 AM 10.4 °F -1.5 °F -22.0 °F 22% 30.23 in 10.0 mi SE 8.1 mph - N/A   Overcast
8:35 AM 10.4 °F -2.4 °F -13.0 °F 34% 30.23 in 8.0 mi SSE 9.2 mph - N/A   Overcast
8:55 AM 10.4 °F -4.1 °F -5.8 °F 48% 30.22 in 10.0 mi SE 11.5 mph - N/A   Overcast
9:15 AM 10.4 °F -2.4 °F - N/A% 30.22 in 10.0 mi SSE 9.2 mph - N/A   Overcast
9:35 AM 12.2 °F -0.2 °F -5.8 °F 45% 30.22 in 9.0 mi SSE 9.2 mph - N/A   Mostly Cloudy
9:55 AM 10.4 °F -1.5 °F 5.0 °F 79% 30.23 in 3.0 mi SSE 8.1 mph - N/A   Overcast
10:15 AM 12.2 °F 0.7 °F 6.8 °F 79% 30.21 in 1.2 mi SE 8.1 mph - N/A   Overcast
10:35 AM 12.2 °F 0.7 °F 8.6 °F 85% 30.21 in 0.5 mi SE 8.1 mph - N/A   Overcast
10:55 AM 12.2 °F 0.7 °F 8.6 °F 85% 30.21 in 1.0 mi SSE 8.1 mph - N/A   Overcast
11:15 AM 12.2 °F 1.7 °F 8.6 °F 85% 30.20 in 0.5 mi SSE 6.9 mph - N/A   Overcast
11:35 AM 12.2 °F -0.2 °F 8.6 °F 85% 30.19 in 2.0 mi SSE 9.2 mph - N/A   Overcast
11:55 AM 14.0 °F 2.9 °F 8.6 °F 79% 30.19 in 10.0 mi SSE 8.1 mph - N/A   Overcast
12:15 PM 14.0 °F 2.9 °F 8.6 °F 79% 30.18 in 10.0 mi SSE 8.1 mph - N/A   Overcast
12:35 PM 14.0 °F 2.0 °F 8.6 °F 79% 30.17 in 10.0 mi SSE 9.2 mph - N/A   Overcast
12:55 PM 14.0 °F 2.9 °F 10.4 °F 86% 30.15 in 8.0 mi SSE 8.1 mph - N/A   Overcast
1:15 PM 15.8 °F 5.1 °F 10.4 °F 79% 30.13 in 8.0 mi SSE 8.1 mph - N/A   Overcast
1:35 PM 15.8 °F 5.1 °F 10.4 °F 79% 30.12 in 7.0 mi SSE 8.1 mph - N/A   Overcast
1:55 PM 15.8 °F 6.1 °F 10.4 °F 79% 30.13 in 10.0 mi SSE 6.9 mph - N/A   Overcast
2:15 PM 15.8 °F 7.2 °F 10.4 °F 79% 30.13 in 8.0 mi SSE 5.8 mph - N/A   Overcast
2:35 PM 15.8 °F 6.1 °F 10.4 °F 79% 30.13 in 9.0 mi South 6.9 mph - N/A   Overcast
2:55 PM 15.8 °F 7.2 °F 10.4 °F 79% 30.13 in 6.0 mi South 5.8 mph - N/A   Overcast
3:15 PM 15.8 °F 7.2 °F 10.4 °F 79% 30.13 in 10.0 mi South 5.8 mph - N/A   Overcast
3:35 PM 15.8 °F 7.2 °F 10.4 °F 79% 30.12 in 10.0 mi SSE 5.8 mph - N/A   Overcast
3:55 PM 15.8 °F 7.2 °F 10.4 °F 79% 30.12 in 10.0 mi South 5.8 mph - N/A   Overcast
4:15 PM 15.8 °F 8.6 °F 10.4 °F 79% 30.14 in 10.0 mi South 4.6 mph - N/A   Overcast
4:35 PM 15.8 °F 10.2 °F 12.2 °F 86% 30.14 in 10.0 mi South 3.5 mph - N/A   Overcast
4:55 PM 15.8 °F - 12.2 °F 86% 30.14 in 5.0 mi Calm Calm - N/A   Overcast
5:15 PM 15.8 °F - 10.4 °F 79% 30.14 in 7.0 mi Calm Calm - N/A   Overcast
5:35 PM 14.0 °F - 10.4 °F 86% 30.14 in 5.0 mi Calm Calm - N/A   Overcast
5:55 PM 14.0 °F - 12.2 °F 93% 30.14 in 8.0 mi Calm Calm - N/A   Overcast
6:15 PM 14.0 °F - 10.4 °F 86% 30.14 in 8.0 mi Calm Calm - N/A   Overcast
6:35 PM 12.2 °F - 10.4 °F 92% 30.15 in 8.0 mi Calm Calm - N/A   Overcast
6:55 PM 12.2 °F - 10.4 °F 92% 30.15 in 10.0 mi Calm Calm - N/A   Overcast
7:15 PM 12.2 °F - 10.4 °F 92% 30.15 in 10.0 mi Calm Calm - N/A   Overcast
7:35 PM 12.2 °F - 10.4 °F 92% 30.16 in 10.0 mi Calm Calm - N/A   Overcast
7:55 PM 12.2 °F - 8.6 °F 85% 30.17 in 9.0 mi Calm Calm - N/A   Overcast
8:15 PM 12.2 °F - 8.6 °F 85% 30.17 in 8.0 mi Calm Calm - N/A   Overcast
8:35 PM 10.4 °F -0.4 °F 6.8 °F 85% 30.16 in 8.0 mi North 6.9 mph - N/A   Overcast
8:55 PM 10.4 °F 0.8 °F 8.6 °F 92% 30.16 in 10.0 mi North 5.8 mph - N/A   Mostly Cloudy
9:15 PM 10.4 °F 0.8 °F 6.8 °F 85% 30.17 in 10.0 mi North 5.8 mph - N/A   Mostly Cloudy
9:35 PM 12.2 °F 2.9 °F 10.4 °F 92% 30.17 in 9.0 mi North 5.8 mph - N/A   Mostly Cloudy
9:55 PM 12.2 °F 4.3 °F 8.6 °F 85% 30.17 in 10.0 mi North 4.6 mph - N/A   Scattered Clouds
10:15 PM 10.4 °F 4.0 °F 6.8 °F 85% 30.16 in 10.0 mi North 3.5 mph - N/A   Clear
10:35 PM 10.4 °F 4.0 °F 8.6 °F 92% 30.17 in 7.0 mi North 3.5 mph - N/A   Clear
10:55 PM 10.4 °F 4.0 °F 6.8 °F 85% 30.17 in 7.0 mi North 3.5 mph - N/A   Scattered Clouds
11:15 PM 10.4 °F 0.8 °F 8.6 °F 92% 30.16 in 8.0 mi North 5.8 mph - N/A   Mostly Cloudy
11:35 PM 10.4 °F 0.8 °F 8.6 °F 92% 30.16 in 7.0 mi NNW 5.8 mph - N/A   Overcast
11:55 PM 10.4 °F 4.0 °F 8.6 °F 92% 30.17 in 8.0 mi NNW 3.5 mph - N/A   Mostly Cloudy